Вернуться в каталог

ONEWEB-0386

АктивенСвязьPO
NORAD 49312·PAYLOAD·🇬🇧 United Kingdom

Запущен Oct 14, 2021 с Vostochny Cosmodrome

Loading…

Ближайшие Пролёты (ближайшие 24 часа)

TLE

СвежийSource: CelesTrak SupGP

Эпоха: Sep 14, 2026, 20:37 UTC

1 49312C 21090AK  26257.85954120  .00010437  00000+0  25702-1 0  2575
2 49312  87.9139 256.5458 0002253  91.6695 305.8187 13.20761917    11

Отслеживайте ONEWEB-0386 в реальном времени с AllMySat

Download on the App Store